BIKFEGHI

Guest
Details From BIKF - Keflavik Nas
To EGHI - Southampton
Flight Number -
Tags Generated
Created
Modified
Stats Distance 1,031 nm / 1,909 km
Max Altitude 0 ft / 0 m
Waypoints 5
Social Downloads 0
Likes 0
Share VATSIM

Download

Looking for another format? Having issues loading an existing format? Contact us
Advertisement - Login to hide

Notes

Generated

Route

BIKF ERAKA MAGEE EAS EGHI

ID Type Via Altitude Latitude Longitude Leg Dist Tot Dist Heading (true) Name
O BIKF APT - 0 ft / 0 m 63.96448˚ -22.60545˚ - 0 nm - -
ERAKA FIX - 0 ft / 0 m 58.00000˚ -10.00000˚ 511 nm 511 nm 129° / 140° -
MAGEE FIX - 0 ft / 0 m 54.79167˚ -5.60833˚ 241 nm 752 nm 141° / 145° -
EAS NDB - 0 ft / 0 m 50.95503˚ -1.35612˚ 277 nm 1030 nm 145° / 148° SOUTHAMPTON NDB
O EGHI APT - 0 ft / 0 m 50.94295˚ -1.36088˚ 0 nm 1030 nm 194° / 194° -

Altitude Profile

Advertisement - Login to hide

Weather


0- 5 10 15 20 25 30 35+ Temperature / ° C

Clouds and Precipitation
Forecast for 2018-05-21 12:00 UTC. Updated 2 hours ago

Ground ~20,000 ft ~40,000 ft Winds

BIKF

Details ICAO BIKF (KEF)
Name Keflavik
Region Iceland
Timezone Atlantic/Reykjavik (UTC+0.0)
Stats Elevation 170 ft / 52 m (AMSL)
Location 63.981612° -22.614563°
Runways 2
Magnetic Variation 13.952° W

METAR

BIKF 211330Z 25010KT 210V280 9999 SCT017TCU BKN020 05/01 Q1011

Decode

TAF

TAF BIKF 211349Z 2115/2215 23012KT 9999 -SHRA SCT016 BKN025 TX08/2215Z TN04/2203Z BECMG 2121/2124 16017KT -RA BECMG 2205/2208 15022G32KT PROB40 TEMPO 2201/2209 5000 RA BKN015 OVC025 BECMG 2209/2212 15032G42KT 4000 RADZ BKN006 OVC012

Decode

Departure Runways

ID Width Length Bearing (true) Bearing (mag) Surface Threshold Offset Overrun Length
02 197 ft / 60 m 9,997 ft / 3,047 m 0.02° 13.97° Asphalt 0 ft / 0 m 492 ft / 150 m
11 197 ft / 60 m 10,022 ft / 3,055 m 89.97° 103.92° Asphalt 0 ft / 0 m 246 ft / 75 m
20 197 ft / 60 m 9,997 ft / 3,047 m 180.02° 193.97° Asphalt 0 ft / 0 m 98 ft / 30 m
29 197 ft / 60 m 10,022 ft / 3,055 m 270.02° 283.97° Asphalt 0 ft / 0 m 197 ft / 60 m

EGHI

Details ICAO EGHI (SOU)
Name Southampton
Region United Kingdom
Timezone Europe/London (UTC+1.0)
Stats Elevation 44 ft / 13 m (AMSL)
Location 50.950255° -1.356806°
Runways 1
Magnetic Variation 0.749° W

METAR

EGHI 211320Z 13004KT 040V200 9999 FEW038 SCT045 21/10 Q1014

Decode

TAF

Not found

Destination Runways

ID Width Length Bearing (true) Bearing (mag) Surface Threshold Offset Overrun Length
02 121 ft / 37 m 5,650 ft / 1,722 m 19.33° 20.08° Asphalt 240 ft / 73 m 0 ft / 0 m
20 121 ft / 37 m 5,650 ft / 1,722 m 199.34° 200.09° Asphalt 144 ft / 44 m 0 ft / 0 m

Approach Navaids

Runway Type Ident Frequency Range Bearing (true) Bearing (mag) Slope Elevation
20 Localiser ISN 110.75 MHz 18 nm / 33 km 199.34° 200.09° - 44 ft / 13 m (AMSL)
20 Glidescope ISN 110.75 MHz 10 nm / 19 km 199.34° 200.09° 3.10° 44 ft / 13 m (AMSL)
20 DME ISN 110.75 MHz 18 nm / 33 km - - - 54 ft / 16 m (AMSL)